Previsão horária em Cayambe

Hoje, 3 Agosto, Terça-feira

Tempo Temperatura Precipitação Vento Pressão Humidade
00:00 +8°C° 0.1 mm 2 m/s 532 mmHg 86%
01:00 +8°C° 0 mm 2 m/s 532 mmHg 86%
02:00 +8°C° 0.1 mm 2 m/s 532 mmHg 86%
03:00 +8°C° 0.1 mm 2 m/s 531 mmHg 86%
04:00 +8°C° 0.1 mm 2 m/s 531 mmHg 86%
05:00 +8°C° 0.1 mm 2 m/s 531 mmHg 86%
06:00 +8°C° 0.1 mm 2 m/s 532 mmHg 85%
07:00 +8°C° 0.1 mm 3 m/s 532 mmHg 85%
08:00 +9°C° 0.1 mm 3 m/s 532 mmHg 84%
09:00 +9°C° 0.1 mm 3 m/s 533 mmHg 83%
10:00 +9°C° 0.1 mm 3 m/s 533 mmHg 83%
11:00 +10°C° 0.1 mm 3 m/s 533 mmHg 79%
12:00 +11°C° 0.1 mm 3 m/s 534 mmHg 74%
13:00 +12°C° 0.1 mm 3 m/s 534 mmHg 70%
14:00 +12°C° 0.1 mm 3 m/s 533 mmHg 69%
15:00 +13°C° 0.1 mm 3 m/s 533 mmHg 68%
16:00 +13°C° 0.1 mm 3 m/s 532 mmHg 67%
17:00 +11°C° 0.1 mm 3 m/s 532 mmHg 73%
18:00 +10°C° 0.1 mm 3 m/s 532 mmHg 80%
19:00 +9°C° 0.1 mm 3 m/s 532 mmHg 86%
20:00 +8°C° 0 mm 3 m/s 532 mmHg 86%
21:00 +8°C° 0 mm 3 m/s 532 mmHg 86%
22:00 +8°C° 0 mm 3 m/s 532 mmHg 86%
23:00 +7°C° 0 mm 3 m/s 532 mmHg 85%

Amanhã, 4 Agosto, Quarta-feira

Tempo Temperatura Precipitação Vento Pressão Humidade
00:00 +7°C° 0 mm 3 m/s 531 mmHg 85%
01:00 +7°C° 0 mm 3 m/s 531 mmHg 85%
02:00 +7°C° 0 mm 3 m/s 531 mmHg 85%
03:00 +5°C° 0 mm 3 m/s 531 mmHg 84%
04:00 +5°C° 0 mm 3 m/s 530 mmHg 84%
05:00 +5°C° 0 mm 3 m/s 531 mmHg 83%
06:00 +5°C° 0 mm 3 m/s 531 mmHg 82%
07:00 +5°C° 0 mm 3 m/s 531 mmHg 81%
08:00 +9°C° 0 mm 3 m/s 532 mmHg 70%
09:00 +11°C° 0 mm 3 m/s 534 mmHg 59%
10:00 +14°C° 0 mm 4 m/s 535 mmHg 48%
11:00 +14°C° 0 mm 4 m/s 535 mmHg 50%
12:00 +15°C° 0 mm 4 m/s 535 mmHg 51%
13:00 +17°C° 0 mm 4 m/s 535 mmHg 53%
14:00 +15°C° 0.1 mm 4 m/s 534 mmHg 58%
15:00 +14°C° 0.1 mm 4 m/s 533 mmHg 62%
16:00 +13°C° 0.1 mm 4 m/s 532 mmHg 67%
17:00 +12°C° 0 mm 3 m/s 532 mmHg 72%
18:00 +10°C° 0 mm 3 m/s 532 mmHg 77%
19:00 +9°C° 0 mm 3 m/s 532 mmHg 81%
20:00 +8°C° 0 mm 3 m/s 532 mmHg 82%
21:00 +8°C° 0 mm 3 m/s 532 mmHg 82%
22:00 +8°C° 0 mm 3 m/s 532 mmHg 83%
23:00 +7°C° 0 mm 3 m/s 532 mmHg 83%

Depois de amanhã, 5 Agosto, Quinta-feira

Tempo Temperatura Precipitação Vento Pressão Humidade
00:00 +7°C° 0 mm 3 m/s 532 mmHg 83%
01:00 +5°C° 0 mm 3 m/s 531 mmHg 83%
02:00 +5°C° 0 mm 3 m/s 531 mmHg 84%
03:00 +5°C° 0 mm 3 m/s 531 mmHg 84%
04:00 +4°C° 0 mm 3 m/s 531 mmHg 85%
05:00 +4°C° 0 mm 3 m/s 531 mmHg 83%
06:00 +5°C° 0 mm 3 m/s 531 mmHg 82%
07:00 +5°C° 0 mm 3 m/s 532 mmHg 81%
08:00 +8°C° 0 mm 3 m/s 533 mmHg 71%
09:00 +11°C° 0 mm 3 m/s 534 mmHg 61%
10:00 +13°C° 0 mm 3 m/s 535 mmHg 51%
11:00 +14°C° 0 mm 4 m/s 535 mmHg 49%
12:00 +15°C° 0 mm 4 m/s 535 mmHg 47%
13:00 +17°C° 0 mm 4 m/s 535 mmHg 45%
14:00 +15°C° 0.1 mm 4 m/s 534 mmHg 51%
15:00 +14°C° 0.1 mm 4 m/s 534 mmHg 57%
16:00 +13°C° 0.1 mm 4 m/s 533 mmHg 64%
17:00 +11°C° 0 mm 4 m/s 533 mmHg 70%
18:00 +10°C° 0 mm 3 m/s 532 mmHg 77%
19:00 +8°C° 0 mm 3 m/s 532 mmHg 84%
20:00 +8°C° 0 mm 3 m/s 532 mmHg 84%
21:00 +8°C° 0 mm 3 m/s 532 mmHg 85%
22:00 +8°C° 0 mm 3 m/s 532 mmHg 85%
23:00 +7°C° 0 mm 3 m/s 532 mmHg 85%

6 Agosto, Sexta-feira

Tempo Temperatura Precipitação Vento Pressão Humidade
00:00 +7°C° 0 mm 3 m/s 532 mmHg 86%
01:00 +7°C° 0 mm 3 m/s 531 mmHg 86%
02:00 +7°C° 0 mm 3 m/s 531 mmHg 86%
03:00 +5°C° 0 mm 3 m/s 531 mmHg 86%
04:00 +5°C° 0 mm 3 m/s 530 mmHg 86%
05:00 +5°C° 0 mm 3 m/s 531 mmHg 84%
06:00 +7°C° 0 mm 3 m/s 531 mmHg 83%
07:00 +7°C° 0 mm 3 m/s 531 mmHg 81%
08:00 +10°C° 0 mm 3 m/s 533 mmHg 72%
09:00 +12°C° 0 mm 3 m/s 534 mmHg 63%
10:00 +16°C° 0 mm 3 m/s 535 mmHg 54%
11:00 +15°C° 0 mm 4 m/s 535 mmHg 54%
12:00 +15°C° 0 mm 4 m/s 535 mmHg 54%
13:00 +15°C° 0 mm 4 m/s 535 mmHg 55%
14:00 +14°C° 0.1 mm 4 m/s 534 mmHg 58%
15:00 +14°C° 0.1 mm 4 m/s 533 mmHg 62%
16:00 +13°C° 0.1 mm 3 m/s 533 mmHg 65%
17:00 +12°C° 0.1 mm 3 m/s 532 mmHg 71%
18:00 +11°C° 0.1 mm 3 m/s 532 mmHg 77%
19:00 +9°C° 0.1 mm 3 m/s 532 mmHg 83%
20:00 +9°C° 0 mm 2 m/s 532 mmHg 84%
21:00 +9°C° 0 mm 2 m/s 532 mmHg 85%
22:00 +9°C° 0 mm 2 m/s 532 mmHg 86%
23:00 +8°C° 0 mm 2 m/s 532 mmHg 86%

7 Agosto, Sábado

Tempo Temperatura Precipitação Vento Pressão Humidade
00:00 +8°C° 0 mm 2 m/s 532 mmHg 86%
01:00 +8°C° 0 mm 2 m/s 531 mmHg 86%
02:00 +7°C° 0 mm 3 m/s 531 mmHg 86%
03:00 +7°C° 0 mm 3 m/s 531 mmHg 86%
04:00 +7°C° 0 mm 3 m/s 530 mmHg 86%
05:00 +7°C° 0 mm 3 m/s 531 mmHg 85%
06:00 +8°C° 0 mm 3 m/s 531 mmHg 84%
07:00 +8°C° 0 mm 3 m/s 532 mmHg 82%
08:00 +10°C° 0 mm 3 m/s 533 mmHg 74%
09:00 +12°C° 0 mm 3 m/s 534 mmHg 67%
10:00 +14°C° 0 mm 3 m/s 535 mmHg 59%
11:00 +16°C° 0.1 mm 3 m/s 535 mmHg 56%
12:00 +17°C° 0.1 mm 4 m/s 535 mmHg 53%
13:00 +17°C° 0.1 mm 4 m/s 535 mmHg 50%
14:00 +17°C° 0.1 mm 3 m/s 534 mmHg 54%
15:00 +16°C° 0.1 mm 3 m/s 533 mmHg 58%
16:00 +14°C° 0.1 mm 3 m/s 533 mmHg 61%
17:00 +13°C° 0.1 mm 3 m/s 532 mmHg 68%
18:00 +12°C° 0.1 mm 2 m/s 532 mmHg 75%
19:00 +9°C° 0.1 mm 2 m/s 532 mmHg 81%
20:00 +9°C° 0 mm 2 m/s 532 mmHg 83%
21:00 +8°C° 0 mm 2 m/s 532 mmHg 85%
22:00 +7°C° 0 mm 2 m/s 532 mmHg 86%
23:00 +7°C° 0 mm 2 m/s 532 mmHg 87%

8 Agosto, Domingo

Tempo Temperatura Precipitação Vento Pressão Humidade
00:00 +7°C° 0 mm 2 m/s 531 mmHg 87%
01:00 +7°C° 0 mm 2 m/s 531 mmHg 87%
02:00 +7°C° 0 mm 3 m/s 531 mmHg 87%
03:00 +7°C° 0 mm 3 m/s 530 mmHg 86%
04:00 +7°C° 0 mm 3 m/s 530 mmHg 86%
05:00 +7°C° 0 mm 3 m/s 530 mmHg 85%
06:00 +7°C° 0 mm 3 m/s 531 mmHg 84%
07:00 +8°C° 0 mm 3 m/s 531 mmHg 83%
08:00 +10°C° 0 mm 3 m/s 532 mmHg 73%
09:00 +12°C° 0 mm 3 m/s 533 mmHg 64%
10:00 +16°C° 0 mm 3 m/s 535 mmHg 54%
11:00 +16°C° 0.1 mm 3 m/s 534 mmHg 53%
12:00 +17°C° 0.1 mm 4 m/s 534 mmHg 52%
13:00 +17°C° 0.1 mm 4 m/s 534 mmHg 51%
14:00 +17°C° 0.1 mm 4 m/s 534 mmHg 54%
15:00 +16°C° 0.1 mm 3 m/s 533 mmHg 58%
16:00 +14°C° 0.1 mm 3 m/s 533 mmHg 62%
17:00 +13°C° 0.1 mm 3 m/s 532 mmHg 69%
18:00 +12°C° 0.1 mm 2 m/s 532 mmHg 77%
19:00 +9°C° 0.1 mm 2 m/s 531 mmHg 84%
20:00 +9°C° 0 mm 2 m/s 531 mmHg 85%
21:00 +8°C° 0 mm 2 m/s 532 mmHg 85%
22:00 +8°C° 0 mm 2 m/s 532 mmHg 85%
23:00 +8°C° 0 mm 2 m/s 532 mmHg 85%
Mostrar mais

Necessitamos do seu Consentimento

A Meteoprog e os seus Fornecedores de Serviços podem armazenar e aceder a dados pessoais como cookies, identificadores do dispositivo ou outras tecnologias semelhantes existentes no seu dispositivo e processar estes dados para personalizar conteúdos e anúncios, assim como funcionalidades nas redes sociais e análise de tráfego.

  • Armazenar e/ou aceder a informações no seu dispositivo

    Os cookies, identificadores do dispositivo ou outras informações podem ser armazenados ou acedidos no seu dispositivo, para os fins acima indicados.

  • Anúncios e conteúdos personalizados, medição de anúncios e conteúdos, dados sobre o público-alvo e desenvolvimento de produtos

    Os anúncios e os conteúdos podem ser personalizados com base num perfil. Podem ser adicionados dados adicionais para uma maior personalização dos anúncios e dos conteúdos. A eficácia dos anúncios e dos conteúdos pode ser medida. Podem ser obtidas informações sobre o público que visualizou os anúncios e os conteúdos. Estes dados podem ser usados para desenvolver ou melhorar sistemas, softwares ou a experiência do utilizador.

Ao clicar em "Eu concordo”, permitirá o uso de cookies, identificadores do dispositivo e web beacons mencionados ou outras tecnologias semelhantes. As configurações do navegador do seu dispositivo podem ser alteradas.

Para certos fins, podem ser invocados interesses legítimos ao invés de consentimento. Pode ler mais informação sobre este assunto na nossa Política de Privacidade e Cookies.